User: anonymous   Login
Location: Unspecified
(0.0000°N, 0.0000°E)
Time: 04:08:12
(UTC+00:00)
Language:

DSCS III B-5 - Orbit

View from above orbital plane
View from above orbital plane
View from above satellite
View from above satellite

Ground track
Ground track

The orbit data is extracted from the following two-line orbital elements,

1 16117U 85092C   17342.99030444 0.00000000  00000-0  00000-0 0    03
2 16117  15.2064  13.6090 0000716 133.9449 226.0730  0.99322533    08
Epoch (UTC): 08 December 2017 23:46:02
Eccentricity: 0.0000716
inclination: 15.2064°
perigee height: 36051 km
apogee height: 36057 km
right ascension of ascending node: 13.6090°
argument of perigee: 133.9449°
revolutions per day: 0.99322533
mean anomaly at epoch: 226.0730°
orbit number at epoch: 0

The dashed part of the orbit path shows where the satellite is in the earth's shadow,  

DLR